Wind_Speed
29 29 29 29 28 28 28 29 30 31 32 32 33 34 35 36 36 37 38 39 40 40 41 42 42 43 43 44 44 44 44 44 44 44 44 44 45 45 45 45 45 45 45
30 29 29 29 29 30 30 31 32 32 33 34 35 36 37 37 38 39 40 41 42 42 43 44 45 45 46 46 46 46 46 47 47 47 47 47 48 48 48 48 48 48 48
29 29 29 30 30 31 32 32 33 34 35 36 37 38 38 39 40 41 42 42 44 44 45 46 47 47 48 48 48 48 48 49 49 50 50 50 50 50 51 51 51 51 51
30 29 30 31 32 33 33 34 35 36 37 37 38 39 40 41 42 43 44 45 46 47 48 49 49 50 50 50 50 50 51 51 52 52 52 53 54 54 54 54 54 54 54
31 31 32 32 33 34 35 36 37 38 39 39 40 40 42 43 44 46 46 47 48 49 50 50 51 51 52 52 53 53 54 55 55 55 55 56 56 57 57 58 58 58 58
32 33 34 34 35 36 37 38 38 39 40 41 42 42 43 45 46 47 48 49 50 51 51 51 52 53 54 55 56 56 57 58 58 58 58 59 59 60 60 61 61 61 61
33 34 35 36 37 37 38 39 40 41 42 43 44 45 45 46 47 49 50 51 51 52 54 54 55 55 56 57 57 58 59 59 61 61 61 62 62 63 63 64 65 65 65
35 35 36 37 38 39 40 41 42 43 44 46 47 48 47 48 49 50 51 52 52 54 55 56 56 57 57 58 58 59 60 61 63 63 64 65 66 67 67 67 67 68 68
36 37 37 39 40 41 42 43 44 45 46 47 49 51 51 50 50 51 52 53 54 55 56 56 56 57 57 58 58 59 61 62 64 65 66 66 67 68 68 69 69 69 69
38 38 39 40 41 42 43 44 46 47 49 50 51 53 54 54 54 53 52 53 54 54 55 55 56 57 57 58 59 60 60 62 62 63 64 65 66 66 67 67 67 67 68
39 40 41 41 42 44 45 46 48 49 51 52 54 55 55 55 56 56 54 53 53 54 55 56 57 57 58 58 58 59 59 59 60 61 62 63 63 64 64 64 65 65 65
40 41 42 43 44 45 46 48 49 51 53 54 55 55 56 56 56 56 56 55 54 54 55 56 57 58 58 58 58 57 57 58 58 59 59 59 60 59 59 59 60 60 60
42 43 44 45 46 47 48 49 51 53 54 54 54 55 55 56 56 57 57 55 55 54 55 56 57 57 57 56 56 56 56 56 55 55 55 54 53 53 54 54 54 55 55
43 44 45 46 47 49 50 51 52 53 54 54 54 55 56 56 56 56 55 55 55 54 54 54 55 54 54 54 54 54 54 53 53 52 51 50 49 49 49 48 48 48 50
43 45 46 47 48 50 52 53 54 54 53 53 54 54 55 54 54 54 53 54 55 54 53 52 51 51 51 52 52 52 51 50 50 49 48 47 46 44 43 42 42 43 44
45 46 47 49 50 52 53 53 53 53 52 52 52 52 52 51 51 52 52 52 53 53 52 50 50 50 50 51 51 50 48 47 46 45 43 41 40 38 37 37 38 38 39
46 47 49 50 51 52 53 53 53 52 52 52 52 51 51 51 50 51 51 52 52 53 52 49 48 48 48 48 46 45 44 42 41 39 38 36 35 35 34 34 34 33 33
48 49 50 51 52 52 52 52 52 52 52 51 51 50 51 50 50 51 51 51 51 51 50 48 46 46 45 44 43 41 40 39 37 36 35 33 32 32 31 30 29 28 27
49 50 51 52 52 52 52 52 52 51 51 50 50 50 50 50 50 50 50 51 50 49 48 47 45 43 41 40 39 37 37 36 34 32 31 31 30 29 27 26 24 23 23
49 50 51 52 52 52 52 52 51 51 50 50 50 50 50 50 50 51 50 50 49 48 46 45 42 39 37 37 36 35 34 33 30 29 28 27 26 25 24 22 22 21 20
49 50 51 51 52 52 52 52 51 50 49 49 49 49 49 49 50 50 50 48 47 46 44 42 38 36 36 35 33 32 31 29 27 26 25 24 23 22 22 20 19 18 16
49 50 51 51 52 53 52 51 50 49 49 49 48 47 48 48 49 48 47 46 45 44 42 39 36 35 34 33 31 30 28 26 24 24 24 22 21 20 19 17 15 15 14
50 51 52 52 53 53 51 50 50 49 48 48 47 46 47 47 47 46 44 43 42 42 39 37 35 33 32 32 31 28 26 23 22 22 21 20 19 17 16 14 13 13 13
51 51 51 52 52 51 50 49 48 48 47 46 46 46 46 46 46 44 42 41 40 38 36 36 34 32 31 30 29 26 24 22 21 20 20 18 17 15 13 12 13 13 12
50 50 51 51 50 49 47 47 46 46 45 45 45 46 45 44 43 42 40 38 36 35 34 33 32 30 29 28 26 23 22 20 19 18 17 16 14 12 12 12 12 12 12
49 49 49 49 48 46 45 45 44 44 44 44 44 44 43 42 41 40 38 35 33 32 32 31 29 28 26 24 22 20 19 18 17 16 14 13 12 11 10 10 10 10 10
Wind_Direction
271 272 273 274 276 277 278 280 281 281 282 283 284 285 285 285 285 285 285 285 285 284 284 284 284 283 282 281 280 280 279 279 279 278 277 277 276 276 275 275 275 274 274
272 272 273 274 275 277 278 280 281 282 283 284 285 285 286 286 286 286 286 285 285 285 285 285 284 283 282 281 281 280 279 279 278 277 277 277 276 275 275 275 274 274 274
271 273 273 274 276 277 279 280 281 283 284 286 286 286 286 287 287 287 287 286 286 286 286 285 285 284 283 283 282 281 280 279 278 278 277 276 276 275 275 274 274 273 273
272 273 275 275 276 277 279 280 282 284 285 286 287 288 287 288 289 288 288 288 288 287 287 287 286 284 283 283 282 281 281 280 279 278 277 276 275 275 274 274 273 273 273
272 274 276 277 278 278 280 282 283 285 286 287 288 289 289 289 290 289 289 289 288 288 287 287 286 285 284 283 283 282 281 280 279 278 278 277 276 275 274 273 273 272 272
273 275 276 278 279 280 281 283 284 286 287 287 288 288 289 290 290 290 289 289 289 289 288 287 286 286 285 284 283 283 282 280 279 278 277 277 276 275 274 273 273 272 272
274 276 277 279 281 282 283 283 284 286 287 288 289 289 289 290 291 290 290 290 290 289 288 288 287 287 286 285 284 283 282 280 280 279 278 277 276 276 275 274 273 272 271
275 276 278 280 281 283 284 284 285 287 288 289 290 290 290 290 290 290 290 290 290 290 289 289 288 288 287 286 285 284 284 283 282 280 279 278 277 276 275 274 273 272 271
276 278 279 281 282 283 285 286 287 288 288 290 291 291 291 291 290 290 290 290 291 291 291 290 289 289 289 288 286 286 285 284 283 282 281 280 279 278 277 275 273 272 271
277 279 281 282 283 284 286 287 288 289 290 291 291 292 292 293 293 291 290 291 292 293 292 292 292 291 290 290 288 288 287 287 286 285 283 282 281 279 278 276 274 272 270
278 280 281 283 285 286 287 288 289 290 291 292 292 293 293 293 294 294 293 293 293 294 294 294 293 293 292 292 291 290 289 289 288 287 286 285 283 281 279 277 275 273 271
279 280 282 284 286 287 289 290 291 291 292 292 293 293 293 294 294 294 294 294 294 294 295 295 294 293 293 293 292 291 291 291 291 290 289 287 285 283 280 278 276 274 271
280 281 283 284 286 287 289 291 292 292 292 293 293 294 295 295 295 294 295 295 296 296 296 296 294 294 294 294 293 292 293 293 292 291 291 289 288 285 283 280 277 274 271
281 282 283 285 286 287 289 290 292 293 293 293 293 294 295 295 294 295 296 296 296 297 297 297 295 295 295 295 294 293 294 293 292 291 291 291 290 288 285 282 279 276 273
281 282 284 286 287 288 289 290 292 293 293 293 294 295 295 296 295 295 296 298 298 299 300 299 296 296 296 296 296 295 296 294 293 292 293 292 291 288 286 283 281 279 275
282 284 285 287 288 289 290 291 292 293 293 294 294 295 296 297 297 297 297 298 300 301 301 300 297 297 298 298 296 296 297 296 295 295 295 294 291 289 287 285 284 281 278
282 284 286 287 289 290 290 291 292 293 293 293 294 295 296 297 298 298 298 299 300 301 302 300 298 299 299 298 297 298 299 298 297 296 296 294 292 291 288 288 286 283 279
283 285 286 288 289 290 290 291 292 293 293 293 293 295 295 296 298 298 298 299 300 301 302 301 299 299 299 298 299 299 300 300 297 296 296 296 295 293 291 290 289 285 281
284 285 287 288 289 290 291 291 292 292 293 293 294 295 295 296 297 298 299 300 301 301 302 302 301 300 298 298 300 300 300 299 298 297 298 298 296 295 293 291 289 287 285
284 286 287 288 289 290 291 291 291 292 292 293 294 295 295 296 297 298 299 300 300 301 301 302 301 299 298 299 300 300 301 298 297 296 298 298 296 296 295 292 290 289 288
284 286 287 288 289 290 291 291 291 291 292 293 294 295 295 296 297 299 299 299 300 301 301 301 299 299 299 298 299 300 299 296 295 296 298 299 297 294 293 293 291 289 285
284 286 287 288 289 290 290 290 290 290 291 292 293 294 295 296 297 299 298 299 299 300 301 299 298 298 298 297 298 299 297 295 294 294 295 297 296 294 293 293 289 287 282
284 285 287 288 289 289 289 288 289 290 291 292 292 293 295 296 297 297 297 298 298 299 299 298 298 297 296 295 295 296 296 295 293 294 294 294 294 293 293 292 289 285 282
284 285 286 288 289 289 288 287 288 289 290 291 292 293 295 296 297 296 296 296 297 297 298 299 299 297 296 296 295 294 291 291 291 292 292 291 292 291 288 290 288 284 283
283 284 286 287 288 288 287 287 288 289 289 290 291 293 295 295 295 295 296 295 294 295 297 298 298 297 297 296 295 293 290 287 287 288 289 291 288 287 287 287 286 280 277
283 285 286 287 288 288 287 287 288 288 289 290 292 294 294 294 293 293 294 294 293 294 296 297 297 296 297 296 295 292 290 286 284 287 289 287 285 285 283 283 283 282 280
Height
5819 5819 5818 5818 5817 5816 5816 5815 5814 5812 5811 5809 5807 5806 5804 5802 5800 5798 5796 5794 5792 5790 5788 5786 5784 5782 5780 5778 5776 5774 5773 5771 5770 5768 5767 5766 5764 5763 5762 5761 5760 5759 5758
5813 5813 5812 5812 5811 5810 5809 5808 5807 5806 5804 5802 5801 5799 5797 5794 5792 5790 5788 5786 5783 5781 5779 5776 5774 5772 5770 5768 5766 5764 5762 5760 5759 5757 5756 5755 5753 5752 5751 5750 5749 5748 5747
5807 5806 5806 5805 5805 5804 5803 5801 5800 5799 5797 5795 5793 5791 5788 5786 5784 5781 5779 5776 5773 5771 5768 5766 5763 5761 5759 5756 5754 5752 5750 5749 5747 5745 5744 5742 5741 5740 5739 5738 5737 5736 5735
5800 5800 5799 5799 5798 5797 5795 5794 5793 5791 5789 5787 5785 5782 5780 5777 5774 5771 5769 5766 5763 5760 5757 5754 5751 5749 5746 5744 5742 5740 5738 5736 5734 5732 5730 5729 5728 5726 5725 5724 5723 5723 5722
5794 5793 5793 5791 5790 5789 5788 5786 5785 5783 5781 5778 5776 5773 5771 5768 5765 5761 5758 5755 5751 5748 5745 5742 5738 5735 5733 5730 5728 5726 5724 5721 5719 5718 5716 5714 5713 5711 5710 5709 5709 5708 5707
5787 5786 5785 5784 5783 5781 5780 5778 5776 5774 5771 5769 5767 5764 5761 5758 5754 5750 5747 5743 5739 5736 5732 5728 5725 5722 5719 5716 5713 5711 5708 5705 5703 5702 5700 5698 5696 5695 5694 5693 5692 5692 5691
5779 5778 5777 5776 5775 5773 5771 5769 5767 5765 5762 5759 5756 5754 5752 5748 5744 5739 5735 5731 5727 5723 5719 5715 5711 5708 5704 5701 5698 5694 5691 5689 5687 5685 5683 5680 5679 5677 5676 5675 5674 5674 5673
5771 5770 5769 5768 5766 5764 5762 5760 5757 5755 5752 5748 5745 5742 5740 5739 5734 5729 5724 5719 5715 5710 5706 5701 5697 5693 5689 5685 5681 5678 5674 5671 5669 5666 5664 5662 5660 5658 5657 5656 5654 5654 5654
5763 5761 5760 5759 5757 5755 5752 5750 5747 5744 5741 5738 5733 5729 5726 5724 5722 5719 5712 5707 5702 5697 5692 5687 5682 5677 5673 5669 5665 5661 5657 5653 5650 5647 5644 5642 5639 5637 5636 5634 5633 5633 5633
5754 5752 5751 5749 5747 5745 5742 5740 5737 5733 5730 5727 5723 5717 5712 5708 5705 5703 5701 5695 5690 5684 5678 5672 5667 5662 5658 5653 5649 5644 5639 5635 5631 5628 5624 5621 5618 5616 5614 5613 5612 5611 5611
5744 5743 5741 5739 5737 5735 5732 5729 5726 5722 5718 5714 5710 5705 5700 5695 5690 5686 5685 5683 5678 5672 5665 5658 5652 5647 5642 5637 5632 5627 5622 5618 5614 5610 5605 5602 5598 5596 5593 5591 5590 5590 5590
5735 5733 5731 5729 5727 5724 5721 5718 5714 5710 5706 5701 5697 5692 5687 5683 5678 5673 5669 5667 5664 5660 5653 5645 5639 5633 5628 5622 5616 5611 5607 5602 5597 5592 5588 5584 5580 5577 5574 5572 5571 5570 5570
5725 5723 5721 5719 5716 5713 5710 5706 5702 5698 5693 5689 5684 5679 5674 5669 5664 5659 5654 5651 5649 5646 5640 5632 5624 5619 5613 5607 5602 5596 5592 5586 5582 5577 5572 5568 5564 5560 5557 5555 5553 5552 5552
5715 5712 5710 5708 5705 5702 5698 5694 5690 5686 5681 5676 5671 5667 5662 5656 5651 5645 5640 5636 5634 5632 5627 5620 5612 5605 5599 5594 5588 5583 5578 5572 5567 5562 5558 5554 5550 5546 5542 5540 5538 5537 5537
5703 5701 5699 5696 5693 5690 5686 5682 5678 5673 5668 5664 5659 5654 5649 5644 5638 5633 5628 5623 5618 5615 5614 5607 5600 5593 5587 5581 5575 5570 5565 5559 5554 5550 5545 5541 5537 5533 5530 5528 5526 5524 5523
5692 5690 5688 5685 5681 5677 5673 5669 5665 5660 5656 5651 5647 5642 5637 5632 5627 5621 5617 5611 5605 5601 5598 5594 5587 5581 5575 5569 5563 5558 5552 5547 5543 5538 5534 5530 5526 5523 5520 5517 5515 5513 5512
5681 5679 5676 5673 5669 5665 5661 5657 5652 5648 5644 5639 5635 5630 5626 5621 5616 5611 5605 5600 5595 5589 5584 5581 5575 5570 5564 5558 5553 5547 5542 5537 5533 5529 5525 5521 5518 5515 5511 5509 5506 5504 5502
5670 5667 5664 5660 5657 5652 5648 5644 5640 5636 5631 5627 5623 5619 5614 5609 5605 5599 5594 5589 5584 5578 5572 5569 5565 5559 5553 5548 5543 5538 5534 5529 5525 5521 5517 5514 5510 5507 5504 5501 5498 5496 5495
5658 5655 5651 5648 5644 5640 5636 5632 5628 5624 5619 5615 5611 5607 5602 5598 5594 5588 5583 5578 5573 5567 5561 5557 5553 5548 5544 5538 5534 5530 5526 5521 5518 5514 5510 5507 5504 5501 5498 5495 5493 5491 5490
5646 5642 5639 5635 5631 5628 5624 5620 5616 5612 5607 5603 5599 5595 5591 5586 5582 5577 5572 5567 5562 5557 5551 5547 5543 5539 5535 5530 5526 5523 5519 5515 5511 5508 5505 5502 5499 5496 5493 5491 5489 5487 5486
5633 5630 5627 5623 5619 5615 5611 5607 5604 5600 5596 5592 5587 5583 5579 5575 5570 5565 5560 5555 5551 5546 5542 5537 5534 5530 5527 5523 5519 5515 5512 5509 5506 5503 5500 5497 5494 5492 5489 5487 5485 5483 5483
5621 5618 5614 5611 5607 5603 5599 5595 5591 5588 5584 5580 5576 5572 5568 5563 5558 5554 5549 5544 5540 5536 5532 5529 5526 5522 5519 5515 5512 5508 5506 5503 5501 5499 5496 5493 5490 5488 5485 5484 5482 5481 5480
5608 5605 5602 5598 5594 5590 5586 5583 5579 5576 5572 5568 5564 5561 5557 5552 5547 5543 5539 5535 5531 5526 5523 5520 5517 5514 5512 5509 5506 5503 5500 5498 5496 5493 5491 5489 5487 5484 5482 5481 5480 5479 5479
5596 5592 5589 5585 5581 5578 5574 5571 5567 5564 5560 5556 5553 5549 5546 5541 5537 5533 5529 5526 5522 5518 5515 5511 5509 5506 5503 5501 5498 5496 5494 5492 5491 5488 5486 5485 5483 5482 5480 5479 5478 5477 5477
5583 5580 5576 5573 5569 5565 5562 5559 5555 5552 5549 5546 5542 5538 5535 5531 5527 5523 5520 5517 5514 5511 5507 5504 5501 5498 5496 5494 5491 5490 5488 5487 5486 5485 5482 5481 5480 5479 5478 5477 5476 5475 5475
5570 5567 5564 5560 5557 5554 5550 5547 5544 5542 5539 5536 5532 5528 5524 5520 5516 5513 5510 5508 5506 5503 5500 5497 5494 5492 5490 5488 5486 5485 5483 5482 5481 5480 5479 5478 5477 5476 5476 5475 5474 5474 5473